Lapse_Rate
5.0 4.8 4.7 5.3 5.7 6.3 5.7 5.6 6.0 6.2 6.5 6.2 6.2 6.1 6.4 6.3 6.4 6.7 7.0 7.1 6.9 7.0 7.0 7.1 7.0 6.9 6.7 6.7 6.7 6.6 6.4 6.2 6.3 6.3 6.0 5.5 5.1 4.7 4.6 4.4 4.3 4.1 4.0 4.1
4.7 4.7 5.0 5.9 6.1 6.0 5.5 5.6 6.1 6.2 6.2 6.1 6.1 6.1 6.1 6.3 6.4 6.4 6.4 6.5 6.7 6.8 6.9 6.9 6.9 6.9 6.8 6.7 6.6 6.4 6.4 6.3 6.1 5.9 5.9 5.8 5.5 5.2 4.8 4.4 4.3 4.2 4.3 4.4
5.2 5.3 5.8 6.2 6.0 5.5 5.6 5.9 5.9 5.9 6.0 6.2 5.9 6.0 5.9 6.0 6.2 6.3 6.5 6.6 6.6 6.7 6.7 6.8 6.8 6.8 6.8 6.7 6.5 6.3 6.2 6.0 5.9 5.8 5.6 5.5 5.4 5.4 5.0 4.6 4.7 4.6 4.6 4.6
6.2 6.5 6.3 6.1 5.8 6.0 6.0 5.9 5.9 6.2 6.2 6.0 5.8 5.7 5.8 6.0 6.1 6.2 6.4 6.5 6.5 6.6 6.7 6.8 6.8 6.6 6.6 6.5 6.4 6.3 6.2 6.1 6.0 6.0 5.8 5.7 5.5 5.4 5.0 4.9 4.9 4.9 4.9 5.0
5.6 5.7 6.2 6.1 6.3 6.1 6.1 6.0 6.1 6.1 5.9 5.6 6.1 6.0 6.1 5.9 6.0 6.4 6.4 6.5 6.5 6.5 6.5 6.5 6.4 6.5 6.6 6.5 6.4 6.2 5.9 5.7 5.6 5.4 5.3 5.3 5.1 4.9 4.9 4.9 4.9 5.0 5.1 5.0
6.4 6.5 6.2 6.3 6.4 6.2 6.3 6.2 6.1 6.0 5.7 5.0 6.5 6.4 6.1 6.3 6.5 6.6 6.5 6.5 6.4 6.4 6.3 6.3 6.3 6.3 6.0 5.7 5.5 5.4 5.4 5.3 5.3 5.2 5.2 5.2 5.2 5.2 5.2 5.2 5.2 5.2 5.2 5.1
6.6 6.4 6.4 6.5 6.3 6.3 6.2 6.2 5.8 5.4 4.9 4.8 6.3 6.4 6.8 6.4 6.6 6.9 6.5 6.4 6.4 6.3 6.1 6.0 5.8 5.6 5.4 5.3 5.3 5.3 5.3 5.3 5.2 5.3 5.3 5.2 5.2 5.2 5.3 5.3 5.2 5.3 5.3 5.3
6.2 6.3 6.5 6.5 6.3 6.3 6.3 6.2 6.0 5.5 5.0 5.5 6.2 6.4 7.2 7.1 6.7 6.5 6.2 6.1 6.3 6.1 5.9 5.8 5.7 5.6 5.5 5.4 5.5 5.7 5.7 5.5 5.3 5.2 5.2 5.0 4.8 4.8 4.7 4.8 4.9 4.9 4.9 4.9
6.4 6.4 6.3 6.3 6.2 6.2 6.3 6.0 6.1 6.4 6.8 6.2 7.0 7.1 6.9 7.0 6.6 6.2 6.4 6.3 6.4 6.4 6.0 5.7 5.6 5.7 5.6 5.4 5.4 5.5 5.5 5.4 5.1 4.9 4.7 4.6 4.6 4.6 4.8 4.9 4.9 4.9 4.9 4.9
7.0 6.1 5.9 6.0 6.1 6.3 6.2 6.3 6.3 6.6 6.0 6.0 6.5 7.4 7.0 6.8 6.8 6.5 6.2 6.4 6.5 6.1 5.5 5.4 5.4 5.2 5.1 5.3 5.3 5.4 5.2 4.8 4.8 4.7 4.5 4.5 4.6 4.7 4.7 4.8 4.9 4.9 5.0 5.0
6.7 6.5 5.7 5.9 6.2 6.1 6.1 6.2 6.4 6.5 6.5 5.3 5.1 6.4 6.7 6.9 6.8 6.6 6.3 6.2 5.8 5.4 5.4 5.5 5.4 5.3 5.4 5.2 5.3 5.4 5.0 4.7 4.8 4.8 4.7 4.6 4.6 4.5 4.6 4.5 4.5 4.6 4.7 4.8
6.5 6.3 5.7 5.8 5.9 6.0 6.1 6.2 6.3 6.4 6.1 6.2 5.9 6.4 6.7 6.6 6.3 6.0 5.6 5.4 5.3 5.3 5.2 5.1 5.0 5.3 5.3 5.3 5.2 5.1 4.7 4.5 4.4 4.1 4.0 4.0 3.9 4.0 4.1 4.2 4.2 4.4 4.6 4.8
6.4 6.0 5.6 5.6 5.8 5.8 6.0 6.1 6.1 6.1 6.0 6.0 5.6 6.4 7.0 6.6 6.2 5.9 5.5 5.4 5.5 5.4 5.3 5.4 5.5 5.3 5.0 5.0 4.9 4.5 4.2 4.3 4.1 3.9 3.7 3.7 3.7 4.0 4.0 4.1 4.3 4.4 4.5 4.8
6.7 6.4 6.4 6.1 6.3 6.4 6.1 6.2 6.2 6.1 6.0 6.2 6.4 6.6 6.8 6.7 6.3 5.9 5.8 5.6 5.6 5.4 5.1 5.0 4.8 4.7 4.8 4.5 4.3 4.2 4.2 4.0 3.8 3.7 3.7 3.8 4.0 4.0 4.1 4.2 4.3 4.5 4.6 4.8
6.6 6.3 6.4 6.4 6.4 6.4 6.5 6.6 6.4 6.4 6.5 6.0 6.6 6.3 6.9 6.3 6.0 5.7 5.5 5.5 5.2 4.9 4.9 4.9 4.9 4.8 4.4 4.2 4.2 4.0 3.9 3.6 3.4 3.4 3.4 3.5 3.5 3.7 3.9 4.1 4.4 4.6 4.9 5.2
6.8 6.5 6.4 6.4 6.3 6.6 6.9 7.0 6.7 6.6 6.4 6.0 6.2 6.4 6.2 5.7 5.6 5.5 5.3 5.1 5.0 4.9 4.8 4.7 4.6 4.6 4.4 4.3 4.1 3.9 3.6 3.4 3.4 3.5 3.6 3.7 3.8 3.9 4.1 4.3 4.5 4.7 5.2 5.8
6.8 6.8 6.5 6.1 5.7 6.0 6.5 7.1 6.7 6.7 6.5 6.2 5.9 6.0 5.8 5.5 5.5 5.2 5.0 4.8 4.6 4.7 4.6 4.4 4.2 4.1 4.0 3.9 3.9 3.8 3.7 3.5 3.4 3.5 3.5 3.6 3.8 4.1 4.4 4.7 5.1 5.6 5.9 6.2
6.5 6.2 5.9 5.7 5.6 4.8 6.7 6.7 6.8 6.5 6.3 5.7 5.5 5.4 5.1 5.0 4.8 4.6 4.7 4.7 4.6 4.5 4.4 4.1 3.9 3.9 3.9 3.9 3.9 3.9 3.6 3.5 3.6 3.6 3.8 4.2 4.6 5.0 5.5 6.0 6.2 6.3 6.4 6.4
5.7 5.6 5.4 5.3 5.1 6.3 6.8 6.6 6.1 5.6 5.6 5.2 5.3 5.1 4.8 4.8 4.6 4.6 4.7 4.7 4.7 4.4 4.1 3.9 3.7 3.4 3.4 3.4 3.4 3.5 3.7 3.8 3.9 4.2 4.7 5.2 5.6 6.0 6.2 6.3 6.3 6.3 6.3 6.3
5.9 5.6 5.2 5.0 5.1 4.4 5.5 5.6 5.4 5.2 5.0 4.9 4.8 4.9 5.0 5.0 4.7 4.4 4.3 4.1 4.0 3.9 3.6 3.5 3.4 3.1 3.3 3.5 3.6 3.7 3.9 4.2 4.5 4.9 5.3 5.8 6.0 6.0 6.0 5.9 5.8 5.9 5.9 6.0
5.7 5.3 5.1 4.8 4.8 5.3 5.5 5.2 4.9 4.9 4.8 4.8 4.6 4.5 4.3 4.2 4.1 3.9 3.9 3.8 3.7 3.5 3.5 3.5 3.4 3.6 3.6 3.8 4.0 4.4 4.7 5.0 5.3 5.6 5.9 5.9 6.0 6.0 5.8 5.8 5.7 5.9 5.9 5.8
5.5 5.3 5.0 4.6 4.5 4.5 4.9 4.6 4.5 4.4 4.1 4.2 4.2 4.1 4.1 3.9 3.8 3.8 3.6 3.5 3.5 3.4 3.4 3.4 3.6 3.6 3.9 4.3 4.8 5.3 5.3 5.5 5.7 5.8 5.9 6.0 5.9 5.8 5.7 5.7 5.8 5.8 5.8 5.7
4.9 5.1 4.9 5.0 5.3 4.9 4.6 4.5 4.4 4.2 4.2 4.3 4.2 4.0 4.0 3.6 3.5 3.6 3.5 3.4 3.5 3.5 3.6 3.5 3.8 4.3 4.7 5.2 5.2 5.4 5.4 5.7 5.8 5.9 5.9 5.9 5.8 5.7 5.6 5.7 5.8 5.8 5.8 5.8
4.9 4.9 4.5 4.6 5.4 5.2 5.3 4.8 4.4 4.6 4.8 4.7 4.6 4.4 4.1 4.2 4.0 3.7 3.3 3.1 3.2 3.3 3.5 3.9 4.2 4.8 5.3 4.9 5.2 5.4 5.7 5.7 5.8 5.8 5.8 5.6 5.6 5.6 5.6 5.7 5.8 5.7 5.6 5.5
4.5 4.4 4.7 4.9 5.1 4.7 5.0 4.8 5.1 5.2 4.9 4.3 4.1 4.2 4.4 4.3 3.9 3.7 3.5 3.5 3.5 3.6 3.9 4.2 5.0 5.3 5.0 5.0 5.5 5.6 5.7 5.8 5.8 5.6 5.5 5.4 5.5 5.5 5.5 5.7 5.8 5.7 5.6 5.2
5.3 5.3 5.0 5.4 5.0 5.2 5.7 5.4 4.8 4.2 4.2 4.3 4.5 4.5 4.4 4.2 4.0 3.9 3.9 3.7 3.7 4.0 4.1 4.6 5.1 5.2 5.4 5.5 5.7 5.8 5.8 5.7 5.4 5.3 5.3 5.3 5.4 5.5 5.6 5.7 5.8 5.7 5.5 5.3
Wind_Speed
10 4 9 13 8 5 5 4 7 3 1 4 6 7 12 5 7 9 7 8 8 8 5 8 10 8 8 8 9 8 5 6 6 3 5 4 8 3 3 5 7 7 9 9
7 9 12 9 11 9 9 7 6 3 5 4 4 7 3 4 5 7 8 8 8 7 9 8 8 8 9 7 8 8 7 7 3 3 3 3 3 3 2 4 5 8 8 9
11 8 9 13 6 10 7 2 1 3 5 3 2 7 3 5 6 6 6 6 6 7 6 6 8 8 8 10 9 8 8 7 7 2 2 2 3 1 1 3 3 6 8 10
7 6 13 8 7 6 4 4 3 3 5 3 5 4 3 6 5 5 7 7 6 6 5 5 7 8 9 8 8 9 8 8 8 8 6 5 2 3 3 3 3 5 7 10
7 8 11 7 7 6 4 1 2 1 1 3 3 3 6 6 5 6 7 7 6 6 6 7 7 7 6 7 8 8 9 10 9 9 7 4 4 2 2 3 6 6 6 7
6 4 6 7 3 5 5 1 2 3 3 1 6 6 4 9 9 6 5 7 8 7 7 7 6 7 6 7 7 7 8 8 8 8 8 8 8 7 5 5 4 4 4 5
5 3 0 3 5 3 4 5 1 2 1 5 3 2 8 12 12 12 10 9 7 7 7 7 7 7 7 8 8 6 8 7 7 8 8 8 7 7 6 6 4 6 4 3
5 3 5 2 4 5 5 7 4 3 3 4 2 5 6 12 10 10 9 9 8 8 7 6 5 5 5 6 6 6 7 7 7 7 8 7 7 4 4 4 4 4 4 5
5 1 1 3 2 3 4 4 4 2 2 2 3 4 5 7 9 8 9 8 8 8 7 7 6 3 1 3 5 5 7 7 8 8 8 8 8 8 7 7 5 4 5 8
4 5 1 1 2 2 3 1 2 2 3 2 5 3 3 6 8 7 8 9 7 7 7 7 5 3 1 2 5 8 8 8 7 8 7 7 7 7 7 7 8 7 9 8
2 4 2 3 4 5 2 1 1 2 4 4 2 5 5 7 8 10 8 8 9 7 7 6 4 2 2 6 7 7 8 9 11 10 9 9 8 8 9 9 9 10 10 10
1 5 4 2 1 2 2 4 5 4 1 1 4 5 3 5 9 9 9 8 6 8 7 6 3 5 7 7 7 7 9 9 7 7 7 8 7 7 8 9 9 10 10 10
0 3 4 4 3 2 3 2 3 3 2 3 3 5 1 2 6 5 7 7 7 7 6 5 7 6 7 6 7 8 9 8 9 9 9 10 10 10 10 11 12 13 15 15
2 3 3 5 4 4 4 3 3 5 3 4 7 5 5 4 3 3 5 9 8 7 7 6 6 7 6 7 7 7 7 7 9 8 8 10 10 11 11 12 13 14 14 15
3 3 3 2 2 1 4 6 6 7 5 6 2 8 8 5 6 6 6 8 8 8 8 7 7 7 6 6 7 8 8 8 8 8 8 8 8 10 11 12 13 14 14 14
4 2 3 2 3 4 6 8 9 10 8 8 9 17 9 8 4 4 8 8 8 8 7 8 7 6 7 6 5 5 5 6 5 7 9 9 11 11 12 12 13 14 14 14
3 3 3 0 4 5 8 8 10 4 3 5 7 9 5 3 4 3 3 8 9 8 9 8 7 6 5 5 4 5 5 5 7 8 8 10 11 12 12 13 14 14 14 14
3 4 3 2 3 2 4 4 5 7 5 5 5 7 5 3 3 6 2 7 9 9 8 7 5 5 4 3 4 4 6 7 8 6 9 10 12 13 13 14 14 14 13 14
3 4 3 4 3 7 6 5 4 3 4 2 1 4 4 2 3 5 6 7 8 8 7 6 6 4 3 4 4 6 6 6 7 6 8 9 11 12 13 13 14 13 13 13
3 5 4 3 3 4 4 1 2 3 4 3 1 1 4 1 5 3 5 7 9 9 7 5 5 4 3 4 6 6 6 6 6 6 8 9 10 11 12 12 13 12 12 14
3 2 4 3 2 7 7 5 1 2 4 7 4 4 3 5 4 6 8 9 7 6 6 5 4 3 3 5 5 5 6 6 6 7 8 8 9 10 11 11 12 12 12 13
6 5 4 3 3 6 1 2 2 2 4 5 6 6 6 6 8 9 8 7 6 5 4 4 3 3 4 5 4 5 6 7 6 6 8 9 10 9 10 12 11 11 12 11
2 5 4 7 5 5 5 5 3 2 3 2 3 4 3 7 5 8 8 9 6 5 3 3 2 3 4 5 5 6 6 6 7 6 9 10 11 10 10 10 12 10 10 10
3 2 3 2 1 1 3 5 6 6 6 5 3 2 3 3 3 0 3 4 4 4 3 2 2 4 4 4 5 6 7 8 7 8 9 9 10 12 11 8 8 9 9 10
5 2 2 6 9 6 2 2 4 4 4 4 3 3 3 3 2 3 1 2 3 3 2 2 3 4 5 5 6 7 8 7 8 8 9 10 9 10 11 10 9 9 10 12
5 7 5 6 4 3 5 6 4 5 5 8 7 4 2 2 4 2 3 3 3 2 2 3 5 5 6 6 7 8 7 7 7 10 9 9 10 9 9 10 11 18 22 25
Wind_Direction
175 155 196 199 207 220 283 283 264 258 249 119 226 258 270 257 83 75 72 73 70 61 17 33 29 17 14 22 27 19 8 253 200 153 181 201 214 199 210 218 228 222 225 219
147 198 206 196 215 215 240 269 306 288 176 128 242 273 278 130 86 129 107 80 76 57 39 26 18 11 19 17 14 12 12 10 217 230 202 164 170 210 202 213 227 220 221 218
158 190 195 208 224 208 210 196 284 278 347 301 59 311 188 47 109 92 73 95 75 87 72 40 26 20 15 19 3 4 4 8 28 80 92 43 68 22 229 241 238 232 226 229
191 187 195 175 196 151 182 203 167 336 52 242 131 263 273 169 130 122 129 110 114 89 60 53 40 29 21 8 13 27 26 24 29 38 40 23 339 300 295 265 261 263 234 237
209 156 176 174 192 148 198 132 210 153 68 12 267 101 246 151 179 183 169 147 138 114 85 64 54 40 15 17 25 26 27 26 21 29 40 52 25 295 303 310 315 303 284 255
178 164 138 185 111 122 135 108 350 44 102 327 236 149 243 193 180 186 186 165 141 113 74 61 56 43 26 17 30 38 41 29 26 30 26 33 29 3 6 351 345 329 317 314
92 85 93 112 94 57 89 69 359 16 28 225 228 85 239 208 184 173 163 162 139 113 79 58 45 37 29 22 16 20 35 32 27 30 28 29 26 20 7 350 340 345 336 329
129 158 170 180 167 166 165 165 167 175 196 261 21 233 256 192 163 136 146 136 126 108 106 93 76 57 29 13 7 20 24 23 21 22 13 11 13 9 355 350 344 349 343 327
130 90 66 94 95 129 206 181 186 140 317 59 231 271 19 53 118 128 140 131 139 138 139 134 110 104 61 358 359 2 17 20 21 18 13 10 6 10 4 358 6 347 348 348
153 106 221 190 96 117 141 187 87 354 188 263 294 265 239 179 169 157 150 163 162 153 152 141 142 157 201 13 11 26 27 30 21 19 12 7 1 6 0 0 358 350 345 338
138 106 242 126 189 173 67 329 202 141 144 167 276 279 287 175 184 176 165 170 176 162 151 148 161 204 42 54 55 45 36 32 23 13 6 5 359 1 3 1 353 347 339 333
51 119 115 194 152 139 196 197 164 128 272 127 148 273 270 136 141 140 182 179 151 161 157 153 143 66 59 70 49 43 40 32 17 360 0 356 353 357 357 351 345 338 330 324
17 86 96 11 359 360 188 186 141 129 99 208 158 259 170 228 144 176 145 174 176 153 140 91 80 69 69 56 50 42 37 25 10 4 2 357 352 354 351 348 344 341 336 331
65 74 137 163 163 141 169 194 179 138 142 211 220 243 217 192 236 224 209 186 171 151 126 103 78 65 66 55 48 39 30 19 5 359 359 355 355 357 352 344 340 335 331 326
82 101 91 80 94 90 201 216 217 206 183 194 198 247 264 282 275 257 183 154 153 127 110 107 80 76 57 45 38 36 22 9 355 357 356 348 355 349 342 338 332 328 327 323
4 139 79 345 308 274 269 250 228 237 237 253 264 278 268 274 287 168 170 163 138 130 120 97 94 78 58 49 42 28 8 353 356 358 349 357 351 343 337 332 328 325 322 319
84 106 82 271 24 353 299 249 212 198 205 199 217 249 307 330 297 305 184 159 141 133 112 105 92 81 66 44 50 28 2 352 2 356 2 351 343 336 330 326 324 323 318 317
111 96 86 163 36 275 238 296 187 174 228 222 269 287 292 268 93 38 46 133 124 123 114 95 88 67 47 56 33 15 17 14 359 355 352 342 335 327 323 321 318 315 314 312
53 114 120 138 215 297 336 14 61 92 295 342 219 8 91 18 117 44 48 95 123 124 115 116 113 97 70 33 23 28 13 359 348 341 336 327 319 316 316 315 313 312 314 311
59 81 106 60 143 241 243 189 219 120 310 339 19 337 210 83 311 228 152 124 110 103 101 92 81 92 65 21 28 18 348 338 318 316 316 310 309 307 308 306 312 310 307 311
76 54 169 197 230 287 251 208 5 97 260 312 329 315 298 220 231 136 116 94 96 104 105 95 75 62 7 5 15 346 325 308 295 301 301 301 303 303 301 308 308 306 308 308
163 146 188 145 193 274 167 33 336 213 318 64 26 345 330 97 112 118 113 119 125 121 99 89 62 12 346 352 355 324 307 289 291 290 298 304 302 302 306 302 302 305 304 304
217 181 180 187 211 230 50 128 137 108 117 21 62 11 55 127 161 157 169 165 149 133 124 83 48 344 340 326 328 314 293 297 301 305 303 301 301 300 301 305 308 308 313 312
322 312 216 353 280 250 99 150 170 170 150 161 152 127 352 303 203 67 142 139 141 132 102 69 10 323 309 322 318 299 301 304 307 303 302 302 304 309 311 304 304 309 310 314
209 347 220 277 291 309 158 144 158 152 146 158 169 186 184 172 124 128 148 139 118 95 78 25 319 307 307 311 302 301 300 300 307 302 303 306 306 308 309 308 309 312 310 313
196 205 173 224 210 189 280 322 178 196 212 204 178 195 191 157 153 134 123 102 112 106 10 327 314 306 301 305 298 296 290 296 300 312 310 305 307 304 305 307 310 309 309 312